Hourly Data Report for October 25, 2015

All times are specified in Local Standard Time (LST). Add 1 hour to adjust for Daylight Saving Time where and when it is observed.

CLYDE RIVER A
NUNAVUT

70°29'09.000" N
68°31'01.000" W
26.50 m
2400804
71090
YCY

Download Data

Hourly Data (October 2015)
Hourly Data Report for October 25, 2015
Temp Definition
°C
Dew Point Temp Definition
°C
Rel Hum Definition
%
Wind Dir Definition
10's deg

Wind Spd Definition
km/h
Visibility Definition
km
Stn Press Definition
kPa
Hmdx Definition


Wind Chill Definition


Weather Definition


TIME
00:00 Legend Double Dagger -7.1 -8.5 90 32 26 11.3 98.20   -15 Snow
01:00 Legend Double Dagger -7.7 -9.1 90 32 26 6.4 98.19   -16 Snow
02:00 Legend Double Dagger -8.1 -9.5 90 30 21 16.1 98.18   -16 LegendNANA
03:00 Legend Double Dagger -8.8 -10.4 88 30 21 16.1 98.16   -17 LegendNANA
04:00 Legend Double Dagger -9.1 -10.6 89 30 15 16.1 98.16   -16 LegendNANA
05:00 Legend Double Dagger -8.1 -9.8 88 29 21 16.1 98.15   -16 LegendNANA
06:00 Legend Double Dagger -7.3 -9.0 88 30 11 16.1 98.14   -12 Snow
07:00 Legend Double Dagger -6.9 -8.4 89 30 22 8.1 98.11   -14 Snow
08:00 Legend Double Dagger -6.6 -7.8 91 30 24 2.4 98.12   -14 Snow
09:00 Legend Double Dagger -6.7 -8.2 89 30 28 3.2 98.11   -15 Snow
10:00 Legend Double Dagger -6.5 -7.9 90 30 28 4.8 98.09   -15 Snow
11:00 Legend Double Dagger -6.1 -7.5 90 29 32 4.8 98.06   -15 Snow
12:00 Legend Double Dagger -4.6 -5.6 93 31 22 3.6 98.05   -11 Snow
13:00 Legend Double Dagger -4.5 -5.6 92 32 22 6.4 98.03   -11 Snow
14:00 Legend Double Dagger -4.4 -5.4 93 32 22 11.3 98.03   -11 Snow
15:00 Legend Double Dagger -4.7 -5.7 93 32 43 3.2 97.99   -14 Snow
16:00 Legend Double Dagger -5.0 -6.0 93 31 43 2.8 97.99   -14 Snow
17:00 Legend Double Dagger -5.2 -6.2 93 31 41 6.4 98.01   -14 Snow
18:00 Legend Double Dagger -5.0 -6.1 92 31 43 3.6 97.98   -14 Snow
19:00 Legend Double Dagger -5.1 -6.2 92 31 48 4.0 97.98   -15 Snow
20:00 Legend Double Dagger -5.4 -6.4 93 31 48 2.0 97.96   -15 Snow
21:00 Legend Double Dagger -5.7 -6.8 92 30 50 1.2 97.95   -16 Snow
22:00 Legend Double Dagger -6.1 -7.5 90 30 50 2.8 97.92   -16 Snow
23:00 Legend Double Dagger -6.6 -7.9 91 29 46 2.0 97.90   -17 Snow

Notes on Data Quality.

Legend

  • E = Estimated
  • M = Missing
  • NA = Not Available
  • ‡ = Partner data that is not subject to review by the National Climate Archives
Date modified: